Weather History for Marathon, FL

Change the Weather History Date:

Wednesday, February 20, 2013

  Actual Average Record
Temperature  
Mean Temperature 72 °F 72 °F  
Max Temperature 78 °F 77 °F 84 °F (2014)
Min Temperature 65 °F 67 °F 60 °F (2007)
Degree Days  
Heating Degree Days 0 1  
Month to date heating degree days 7 16  
Since 1 July heating degree days 13 75  
Cooling Degree Days 7 8  
Month to date cooling degree days 161 137  
Year to date cooling degree days 489 318  
Growing Degree Days 22 (Base 50)    
Moisture  
Dew Point 64 °F    
Average Humidity 79    
Maximum Humidity 93    
Minimum Humidity 64    
Precipitation  
Precipitation 0.26 in 0.08 in 0.26 in (2013)
Month to date precipitation 1.81 1.58  
Year to date precipitation 2.35 3.19  
Snow  
Snow 0.00 in - - ()
Month to date snowfall 0.0  
Since 1 July snowfall 0.0  
Snow Depth 0.00 in    
Sea Level Pressure  
Sea Level Pressure 30.06 in    
Wind  
Wind Speed 7 mph (NE)    
Max Wind Speed 17 mph    
Max Gust Speed 13 mph    
Visibility 9 miles    
Events Rain    
T = Trace of Precipitation, MM = Missing Value Source: NWS Daily Summary

Daily Weather History Graph

Daily Weather History Graph

Search for Another Location

Airport:

Trip Planner

Search our weather history database for the weather conditions in past years. The results will help you decide how hot, cold, wet, or windy it might be!

Date:

Astronomy

Feb. 20, 2013 Rise Set
Actual Time 6:54 AM EST 6:21 PM EST
Civil Twilight 6:31 AM EST 6:44 PM EST
Nautical Twilight 6:04 AM EST 7:11 PM EST
Astronomical Twilight 5:37 AM EST 7:38 PM EST
Moon 1:59 PM EST (2/20) 2:55 AM EST (2/20)
Length of Visible Light 12h 13m
Length of Day
11h 27m
Waxing Gibbous, 76% of the Moon is Illuminated
Feb 20
Waxing Gibbous
Feb 25
Full
Mar 4
Last Quarter
Mar 11
New
Mar 19
First Quarter

Hourly Weather History & Observations

Time (EST) Temp. Dew Point Humidity Pressure Visibility Wind Dir Wind Speed Gust Speed Precip Events Conditions
12:53 AM 66.0 °F 62.1 °F 87% 30.09 in 10.0 mi Calm Calm - N/A   Clear
1:53 AM 66.0 °F 62.1 °F 87% 30.07 in 10.0 mi Calm Calm - N/A   Clear
2:53 AM 66.0 °F 62.1 °F 87% 30.06 in 10.0 mi Calm Calm - N/A   Mostly Cloudy
3:26 AM 66.2 °F 62.6 °F 88% 30.04 in 10.0 mi Calm Calm - N/A   Mostly Cloudy
3:36 AM 66.2 °F 62.6 °F 88% 30.05 in 10.0 mi North 3.5 mph - 0.00 in Rain Light Rain
3:45 AM 66.2 °F 62.6 °F 88% 30.05 in 1.5 mi Calm Calm - 0.13 in Rain Rain
3:53 AM 66.9 °F 62.1 °F 84% 30.05 in 1.2 mi NE 8.1 mph - 0.23 in Rain Heavy Rain
3:58 AM 66.2 °F 62.6 °F 88% 30.05 in 3.0 mi Variable 4.6 mph - 0.01 in Rain Rain
4:53 AM 66.9 °F 63.0 °F 87% 30.05 in 10.0 mi NNE 5.8 mph - 0.02 in   Mostly Cloudy
5:28 AM 68.0 °F 62.6 °F 83% 30.06 in 10.0 mi NNE 5.8 mph - N/A   Mostly Cloudy
5:46 AM 66.2 °F 62.6 °F 88% 30.05 in 10.0 mi NNE 6.9 mph - N/A   Mostly Cloudy
5:53 AM 66.9 °F 63.0 °F 87% 30.06 in 10.0 mi NNE 8.1 mph - N/A   Mostly Cloudy
6:35 AM 68.0 °F 62.6 °F 83% 30.08 in 10.0 mi NE 8.1 mph - N/A   Mostly Cloudy
7:53 AM 68.0 °F 64.0 °F 87% 30.09 in 10.0 mi NE 6.9 mph - N/A   Partly Cloudy
8:53 AM 68.0 °F 64.0 °F 87% 30.11 in 10.0 mi NE 9.2 mph - N/A   Partly Cloudy
9:53 AM 69.1 °F 64.0 °F 84% 30.12 in 9.0 mi NE 9.2 mph - N/A   Scattered Clouds
10:53 AM 71.1 °F 64.9 °F 81% 30.11 in 10.0 mi NE 8.1 mph - N/A   Mostly Cloudy
11:53 AM 72.0 °F 64.0 °F 76% 30.09 in 10.0 mi NE 9.2 mph - N/A   Overcast
12:53 PM 73.9 °F 64.9 °F 73% 30.08 in 10.0 mi NNE 8.1 mph - N/A   Overcast
1:53 PM 75.0 °F 64.9 °F 71% 30.05 in 10.0 mi NE 10.4 mph - N/A   Overcast
2:53 PM 77.0 °F 64.9 °F 66% 30.04 in 10.0 mi NE 11.5 mph - N/A   Partly Cloudy
3:05 PM 78.8 °F 66.2 °F 65% 30.03 in 10.0 mi East 10.4 mph - N/A   Mostly Cloudy
3:20 PM 78.8 °F 66.2 °F 65% 30.02 in 10.0 mi East 9.2 mph 16.1 mph N/A   Scattered Clouds
3:53 PM 75.0 °F 66.0 °F 73% 30.01 in 10.0 mi East 9.2 mph - N/A   Clear
4:53 PM 75.9 °F 64.9 °F 69% 30.00 in 10.0 mi East 8.1 mph - N/A   Clear
5:53 PM 73.9 °F 64.9 °F 73% 30.01 in 10.0 mi ESE 4.6 mph - N/A   Clear
6:53 PM 73.9 °F 64.9 °F 73% 30.03 in 10.0 mi East 3.5 mph - N/A   Clear
7:53 PM 72.0 °F 64.9 °F 78% 30.05 in 10.0 mi NNE 3.5 mph - N/A   Clear
8:53 PM 71.1 °F 66.0 °F 84% 30.06 in 10.0 mi NE 5.8 mph - N/A   Clear
9:53 PM 71.1 °F 64.9 °F 81% 30.06 in 10.0 mi NE 4.6 mph - N/A   Clear
10:53 PM 70.0 °F 66.0 °F 87% 30.07 in 10.0 mi NE 5.8 mph - N/A   Clear
11:53 PM 70.0 °F 66.0 °F 87% 30.06 in 10.0 mi Variable 4.6 mph - N/A   Mostly Cloudy